CT1ETE-13 Weather Reports


Display with metric or nautical units.
time (UTC)temp
F
wind
direction
speed
MPH
gust
MPH
rain 1hr
in
rain 24hr
in
rain mn
in
humidity
%
barometer
mb
20260509222705 51 154 10.0 16.0 0.06 0.90 0.90 86 1008.4
20260509204217 52 146 10.0 18.0 0.06 0.77 0.78 84 1007.5
20260509204205 52 129 10.0 15.0 0.07 0.80 0.80 82 1007.7
20260509191159 53 196 10.0 24.0 0.06 0.70 0.70 85 1006.8
20260509182653 54 132 8.0 16.0 0.08 0.66 0.66 86 1006.1
20260509181153 55 126 8.0 13.0 0.09 0.65 0.65 83 1006.1
20260509174156 55 124 7.0 12.0 0.12 0.61 0.61 84 1005.7
20260509162646 55 114 3.0 10.0 0.05 0.44 0.45 85 1005.1
20260509151835 55 147 3.0 7.0 0.28 0.39 0.39 85 1004.8
20260509144142 54 206 1.0 6.0 0.29 0.35 0.35 85 1004.5
20260509135647 61 165 7.0 16.0 0.00 0.06 0.06 70 1003.5
20260509132642 62 74 8.0 15.0 0.00 0.06 0.06 71 1003.3
20260509125642 61 118 8.0 14.0 0.00 0.06 0.06 72 1003.4
20260509114733 57 149 4.0 10.0 0.02 0.06 0.06 83 1004.0
20260509113356 56 148 5.0 13.0 0.03 0.08 0.06 83 1004.0
20260509111143 56 135 6.0 13.0 0.02 0.07 0.06 82 1003.9
20260509090223 59 101 11.0 19.0 0.00 0.05 0.03 70 1003.7
20260509065628 59 95 9.0 14.0 0.00 0.05 0.03 70 1004.0
20260509052625 55 118 8.0 11.0 0.00 0.06 0.03 75 1004.1
20260509041125 55 112 3.0 6.0 0.00 0.07 0.03 79 1004.4
20260509031120 55 150 4.0 8.0 0.00 0.07 0.03 79 1004.6